Wind_Speed
68 65 60 59 56 56 52 49 51 44 46 40 39 40 42 48 51 57 48 54 49 32 29 28 22 15 5 12 11 18 28 31 28 32 34 35 42 52 45 58 66 64 64 66 67 69 65
64 63 59 57 48 49 48 47 43 38 41 36 34 38 46 42 46 53 41 47 55 51 31 28 21 19 13 9 11 18 19 27 35 33 36 39 41 50 54 52 51 58 64 68 69 71 65
62 60 57 56 50 52 47 44 41 38 41 37 29 35 39 46 46 47 47 44 47 52 40 25 24 18 16 11 6 14 21 27 31 34 33 38 43 49 49 58 59 59 60 61 59 60 63
64 64 60 60 52 51 48 36 37 32 35 33 28 35 38 39 42 42 45 42 42 45 51 36 21 19 16 15 13 10 9 14 33 39 40 41 45 48 51 53 59 64 68 71 73 75 72
68 69 55 47 45 47 36 34 37 33 37 32 29 36 40 36 36 42 41 34 33 39 46 49 39 24 19 17 16 15 14 16 19 20 22 41 54 56 54 56 59 62 64 66 73 75 79
70 55 49 48 56 47 34 30 33 34 33 29 30 34 33 36 34 38 36 32 32 36 37 41 43 43 24 17 17 18 18 20 22 24 27 27 28 32 43 48 56 64 67 72 75 79 83
47 45 50 48 44 41 36 34 34 35 26 24 23 24 27 30 33 35 35 36 28 30 34 38 40 46 47 38 20 17 16 18 21 23 25 29 34 38 40 42 45 50 53 57 66 75 80
44 50 54 45 40 33 34 34 33 32 25 23 27 27 30 32 33 34 34 34 35 28 32 37 37 36 41 39 34 29 23 22 24 26 28 30 32 36 41 45 48 49 51 55 58 61 70
47 55 53 42 32 32 32 32 33 34 33 30 31 29 27 31 31 34 31 32 34 35 32 36 37 38 37 38 32 30 26 28 27 30 33 36 39 42 45 48 49 53 56 58 61 64 69
53 54 51 37 31 37 31 32 33 33 31 29 31 33 30 31 28 29 31 32 33 36 33 40 40 36 42 42 34 34 34 32 34 35 33 31 33 37 44 50 56 62 63 64 67 70 74
57 56 53 38 37 33 32 32 34 33 32 34 36 32 31 32 28 28 30 31 37 36 38 39 40 37 43 47 38 34 35 35 36 36 40 43 39 38 40 42 41 47 57 67 74 77 78
54 55 54 43 39 31 34 33 34 33 34 35 37 32 29 34 32 28 29 30 34 37 39 41 43 44 42 47 44 41 37 34 38 43 42 42 45 47 48 50 51 50 51 51 53 64 79
57 57 51 49 39 33 34 36 35 33 35 35 35 32 31 33 33 30 30 31 31 37 38 40 45 45 44 48 49 48 47 41 38 39 45 43 45 45 52 51 55 55 58 57 54 53 59
57 59 53 53 42 38 37 38 38 34 36 35 36 34 33 32 33 34 35 35 35 36 36 42 47 47 51 50 52 53 51 46 46 47 45 47 46 48 52 55 58 58 60 63 60 56 52
60 59 57 51 49 44 40 41 40 36 35 37 36 36 32 35 34 38 37 37 37 42 37 42 47 49 51 53 57 55 55 54 53 50 50 53 50 54 55 58 60 61 64 63 63 59 54
61 60 57 53 50 47 44 42 41 43 40 39 35 35 38 36 37 36 40 41 46 47 47 45 48 49 52 53 55 58 58 58 58 56 58 56 57 58 58 57 61 62 66 65 64 62 56
63 60 57 56 50 47 47 43 41 43 45 40 37 36 36 38 37 38 41 41 45 49 50 51 51 51 56 58 61 62 58 59 60 58 61 60 62 61 62 59 64 61 65 67 68 67 61
61 59 56 53 50 49 48 43 40 43 45 42 40 37 40 40 40 40 42 43 48 52 54 55 52 53 56 59 64 64 59 60 64 66 68 67 64 62 60 62 64 65 67 64 68 69 62
60 60 59 56 55 53 51 49 46 44 46 45 43 38 42 43 41 44 45 46 50 53 56 53 54 58 58 61 65 66 65 64 65 67 67 68 67 66 64 65 67 69 68 65 67 72 64
63 59 60 58 56 56 55 52 50 47 46 48 46 40 42 49 48 46 49 51 54 58 58 56 60 58 58 64 66 66 65 68 71 70 71 71 71 69 66 66 68 71 70 69 70 72 66
65 61 62 61 56 61 57 54 46 47 47 50 46 44 46 47 49 49 52 54 57 60 59 62 58 63 63 66 69 70 69 72 74 74 74 73 70 68 70 67 71 71 69 68 73 72 62
62 62 65 61 59 58 60 54 50 49 47 51 44 47 49 50 52 53 54 57 61 62 62 63 61 65 67 68 73 73 74 75 76 76 76 76 68 69 70 69 69 68 71 72 74 67 59
67 65 66 65 63 59 57 56 51 50 49 50 48 51 51 51 53 56 57 60 62 64 64 63 64 66 70 71 74 77 76 79 78 78 79 73 72 71 70 72 69 72 75 74 68 61 55
73 68 71 61 60 59 62 57 56 53 55 56 54 53 54 56 58 58 59 60 63 64 65 65 67 69 72 73 77 78 81 83 79 80 76 73 76 73 74 73 73 76 71 64 56 58 51
77 68 74 63 60 61 61 63 58 57 60 57 57 57 58 59 60 59 62 64 67 65 68 69 70 74 73 75 78 80 82 82 80 83 76 76 78 82 79 75 71 72 62 52 50 54 48
80 76 77 73 70 67 64 63 62 61 63 60 58 59 61 62 61 63 67 67 69 67 69 73 76 75 74 76 78 80 82 81 83 78 78 80 82 76 72 67 64 64 59 49 47 44 47
82 79 78 76 75 74 69 70 66 63 62 61 63 62 63 63 64 69 69 69 70 69 73 76 77 75 77 78 79 79 82 83 76 77 81 78 74 69 67 61 57 60 54 43 41 38 39
85 79 78 79 80 77 73 69 69 68 68 66 65 66 68 70 70 69 68 72 71 72 75 77 75 77 78 79 77 82 80 76 76 83 80 70 61 59 53 50 45 48 46 41 38 38 40
89 84 81 80 77 81 75 73 74 75 73 73 73 74 74 72 70 70 68 71 73 74 79 76 77 78 78 79 83 80 75 78 84 69 61 56 44 44 46 46 42 37 38 36 35 37 42
Wind_Direction
273 275 281 287 291 293 287 284 291 300 307 306 316 326 329 335 336 347 10 9 10 356 350 344 354 355 299 240 256 246 233 228 232 233 233 232 232 235 237 243 239 238 238 241 246 249 251
269 275 280 285 285 285 281 284 292 304 304 305 312 321 323 333 336 339 358 356 10 12 350 344 337 341 358 278 244 262 245 240 243 241 239 233 235 230 232 230 237 245 247 244 246 249 254
269 277 280 286 283 282 277 284 292 302 304 305 311 324 326 332 339 339 352 345 357 9 11 348 339 324 325 336 340 256 250 244 232 236 231 233 235 235 239 237 238 242 243 245 248 252 256
267 276 278 279 275 267 275 284 296 295 296 295 313 319 323 327 339 341 343 348 351 3 14 13 345 330 307 314 310 304 298 260 243 245 247 244 240 239 239 239 240 241 242 244 248 248 250
267 271 272 266 263 267 269 281 292 294 292 290 301 309 318 325 332 344 337 354 350 355 9 22 19 349 328 303 297 291 283 277 271 268 263 257 259 256 249 243 242 243 243 245 245 249 251
269 269 251 255 272 265 275 282 287 288 282 284 296 305 316 323 327 336 340 350 348 346 355 12 16 25 358 322 302 293 288 280 278 273 268 266 264 262 262 260 256 254 252 249 251 251 252
248 243 245 248 251 256 271 284 286 280 265 282 301 310 315 327 327 334 334 338 349 339 353 1 7 14 15 14 334 312 302 298 291 281 271 263 258 257 258 261 259 260 260 258 259 259 261
242 236 236 238 248 264 276 278 279 273 264 275 294 308 316 316 323 330 328 330 342 340 339 352 5 2 9 10 4 354 329 304 294 287 280 274 268 263 260 257 256 258 257 258 260 260 261
235 229 233 234 249 267 268 273 270 266 259 271 278 293 304 312 321 328 329 327 332 342 328 333 347 357 1 3 2 352 355 357 341 318 293 282 279 276 272 271 268 265 261 259 257 260 258
227 226 233 233 249 263 261 264 263 265 255 266 276 288 300 307 311 325 334 326 324 334 328 325 329 347 352 353 354 348 349 348 343 346 343 334 330 305 292 287 282 276 271 267 265 261 259
219 226 229 236 253 254 253 259 261 259 254 263 272 281 300 305 304 312 330 327 322 327 337 327 325 331 336 341 344 345 339 334 332 331 334 331 332 329 327 326 313 304 290 278 272 267 264
218 227 231 236 251 244 248 257 256 258 257 266 271 282 290 302 301 307 319 331 326 319 328 326 322 319 327 333 336 340 338 332 327 327 328 329 328 329 324 324 325 321 315 306 293 284 275
220 225 231 238 245 247 249 252 253 261 257 262 270 278 286 300 296 304 313 321 320 318 318 320 324 315 319 326 330 331 334 331 325 321 321 323 323 326 323 323 325 323 322 317 309 300 290
222 225 230 238 242 247 250 251 249 260 258 263 265 277 284 300 295 300 305 311 316 327 316 316 319 315 315 320 324 325 329 325 322 320 313 319 319 318 316 321 326 325 321 322 318 310 306
222 226 230 237 243 247 250 250 247 253 261 260 263 275 286 295 298 297 301 305 308 315 317 314 313 314 317 316 321 320 321 325 324 321 317 316 320 318 320 320 322 323 323 322 319 317 313
221 228 232 237 244 245 253 251 250 254 257 261 262 275 282 290 296 301 299 301 305 307 313 314 314 307 310 314 316 316 316 322 320 320 319 317 317 320 321 320 321 322 323 323 322 321 317
227 231 234 234 241 245 256 251 251 255 256 258 262 270 281 286 294 295 294 296 299 302 306 309 312 305 306 308 313 313 314 316 317 317 320 318 320 320 319 320 322 321 322 322 321 323 320
229 230 234 235 243 245 254 251 253 254 255 261 264 269 280 285 290 293 293 293 295 297 303 307 307 303 303 305 307 316 312 314 317 315 314 317 318 319 318 319 322 322 322 320 320 322 322
226 228 233 240 241 247 251 251 253 261 257 259 264 271 277 282 285 294 296 293 292 295 302 302 299 303 304 304 308 313 311 311 313 313 313 316 315 316 316 318 320 323 321 320 319 323 321
229 226 240 242 245 247 253 257 252 258 268 263 265 269 278 275 285 292 296 291 290 295 300 299 300 303 301 306 310 310 308 309 312 312 313 314 315 315 314 317 319 321 318 319 319 322 320
230 233 234 243 248 250 256 258 258 266 265 263 262 269 277 276 284 290 291 287 289 294 295 296 295 296 300 307 308 307 305 308 312 312 312 314 313 316 314 319 319 318 318 317 319 320 319
227 228 237 244 249 251 257 254 256 263 274 265 272 274 277 277 284 286 290 287 288 291 293 297 297 298 301 305 306 307 305 308 311 311 312 312 313 314 312 316 316 313 317 317 318 317 318
227 230 236 246 251 251 254 254 257 264 271 270 271 275 277 276 279 284 289 288 287 291 292 294 298 296 300 304 303 306 305 308 311 311 311 311 313 313 311 314 314 312 314 315 316 313 318
235 237 241 241 246 251 250 255 256 265 269 272 273 275 274 277 279 284 286 289 290 289 291 294 295 296 299 302 304 304 305 307 309 311 309 310 313 313 315 311 311 309 310 314 314 312 315
232 238 238 241 250 251 255 255 260 262 267 272 271 274 277 279 281 284 288 288 293 288 290 292 293 296 300 301 303 304 304 308 306 308 310 311 313 313 312 311 311 306 310 313 311 311 311
235 239 238 245 250 254 254 256 261 264 269 270 271 274 277 279 281 284 289 287 290 285 288 292 293 297 300 302 302 302 306 305 307 308 310 313 316 312 309 311 309 305 307 312 309 311 309
235 240 242 245 247 252 255 258 261 266 268 268 272 273 276 279 280 288 288 286 286 285 288 293 294 295 300 301 302 303 306 303 305 310 312 314 313 309 312 312 308 303 306 308 309 310 309
237 241 245 244 247 252 255 261 263 264 266 268 269 273 276 279 282 286 285 285 282 284 287 292 292 296 300 301 302 303 304 306 307 308 310 311 313 323 319 313 304 301 306 310 314 312 311
238 242 244 246 250 249 255 259 260 263 264 266 270 273 276 277 280 283 280 281 282 284 289 290 293 297 296 298 302 304 305 308 307 309 309 309 332 327 325 314 318 312 311 313 313 311 313
Height
10773 10774 10775 10773 10773 10772 10770 10768 10763 10757 10754 10750 10741 10734 10729 10719 10710 10705 10697 10691 10679 10675 10670 10669 10665 10664 10664 10665 10667 10671 10675 10679 10684 10690 10694 10700 10706 10711 10714 10715 10717 10719 10723 10725 10726 10726 10731
10761 10764 10765 10765 10765 10763 10761 10761 10758 10751 10748 10744 10737 10730 10726 10719 10710 10704 10697 10693 10683 10677 10673 10669 10667 10666 10664 10664 10666 10668 10672 10677 10681 10686 10690 10694 10697 10702 10705 10709 10711 10714 10716 10716 10719 10718 10718
10751 10752 10755 10756 10756 10756 10755 10753 10750 10746 10742 10738 10733 10728 10722 10716 10711 10705 10698 10692 10686 10681 10674 10670 10668 10667 10667 10666 10665 10666 10669 10673 10677 10680 10683 10685 10689 10693 10697 10701 10702 10704 10707 10708 10708 10709 10707
10739 10742 10745 10747 10748 10747 10748 10747 10743 10741 10737 10732 10730 10725 10720 10715 10710 10705 10700 10692 10686 10682 10676 10670 10667 10666 10666 10665 10664 10665 10667 10668 10671 10672 10675 10678 10679 10683 10687 10689 10691 10693 10696 10696 10696 10696 10697
10727 10733 10735 10736 10737 10740 10739 10736 10738 10732 10731 10728 10724 10721 10717 10712 10709 10704 10699 10693 10686 10683 10679 10673 10667 10664 10663 10664 10663 10663 10664 10665 10666 10667 10667 10669 10670 10671 10675 10677 10678 10680 10683 10683 10683 10682 10681
10715 10719 10722 10728 10724 10731 10736 10729 10728 10727 10725 10723 10720 10716 10714 10710 10706 10702 10696 10692 10686 10682 10680 10676 10672 10666 10664 10662 10661 10661 10660 10660 10660 10661 10662 10662 10663 10662 10662 10663 10667 10668 10668 10670 10669 10668 10667
10704 10708 10713 10712 10720 10716 10724 10723 10721 10721 10718 10717 10714 10711 10709 10706 10702 10699 10694 10692 10686 10681 10679 10675 10670 10664 10660 10659 10658 10658 10657 10656 10656 10656 10656 10657 10656 10654 10653 10653 10654 10654 10656 10654 10653 10653 10649
10694 10697 10702 10703 10706 10711 10713 10717 10713 10713 10712 10710 10709 10707 10705 10702 10700 10695 10691 10688 10684 10679 10675 10672 10669 10664 10661 10658 10656 10655 10654 10655 10654 10652 10650 10649 10648 10646 10644 10643 10643 10642 10641 10640 10636 10634 10632
10683 10688 10692 10692 10696 10702 10705 10709 10706 10706 10705 10704 10703 10703 10700 10698 10696 10692 10687 10684 10680 10676 10673 10670 10667 10664 10661 10659 10656 10654 10653 10651 10649 10647 10643 10642 10640 10638 10635 10632 10632 10630 10628 10626 10624 10620 10615
10671 10675 10684 10683 10686 10693 10696 10699 10698 10699 10697 10697 10697 10697 10695 10693 10692 10688 10684 10680 10678 10674 10670 10666 10663 10661 10658 10656 10654 10651 10648 10646 10643 10640 10637 10634 10630 10627 10624 10621 10616 10612 10612 10611 10606 10603 10598
10658 10664 10670 10675 10679 10683 10687 10689 10691 10691 10689 10690 10691 10691 10689 10689 10686 10683 10679 10676 10673 10670 10667 10663 10659 10655 10652 10651 10648 10646 10643 10639 10636 10633 10630 10626 10623 10619 10614 10610 10604 10597 10591 10588 10584 10581 10576
10647 10655 10660 10665 10671 10673 10679 10679 10682 10683 10682 10683 10684 10685 10684 10682 10680 10678 10674 10671 10668 10665 10661 10658 10655 10651 10647 10645 10641 10639 10636 10632 10627 10624 10621 10617 10612 10607 10602 10597 10591 10585 10578 10573 10566 10558 10551
10636 10645 10650 10657 10661 10664 10669 10670 10673 10674 10674 10674 10676 10677 10677 10676 10674 10671 10668 10665 10663 10661 10657 10653 10650 10646 10640 10637 10633 10630 10627 10624 10622 10618 10613 10609 10603 10599 10590 10583 10578 10571 10561 10553 10548 10540 10528
10627 10634 10639 10647 10650 10656 10659 10661 10664 10665 10666 10667 10669 10670 10671 10669 10667 10665 10662 10660 10656 10654 10651 10646 10643 10640 10636 10631 10626 10620 10617 10615 10612 10608 10604 10600 10596 10590 10585 10573 10566 10558 10549 10538 10527 10521 10512
10617 10623 10630 10637 10641 10646 10650 10652 10655 10657 10658 10660 10661 10662 10663 10662 10660 10658 10655 10652 10649 10646 10643 10640 10636 10632 10629 10624 10618 10612 10607 10602 10599 10596 10590 10585 10580 10576 10570 10562 10553 10545 10535 10525 10514 10505 10497
10605 10612 10621 10627 10632 10637 10640 10642 10644 10648 10649 10652 10653 10655 10656 10654 10653 10650 10647 10644 10641 10638 10635 10632 10628 10625 10621 10617 10613 10606 10599 10594 10587 10582 10577 10572 10566 10561 10556 10549 10542 10531 10519 10507 10499 10489 10482
10594 10604 10611 10618 10622 10627 10630 10632 10635 10638 10640 10642 10644 10646 10647 10646 10645 10642 10639 10636 10633 10630 10627 10623 10620 10616 10612 10608 10604 10599 10593 10585 10578 10572 10565 10559 10553 10548 10540 10533 10526 10519 10509 10496 10484 10475 10466
10584 10593 10601 10607 10613 10617 10620 10622 10625 10628 10630 10632 10635 10637 10638 10637 10635 10633 10630 10627 10625 10621 10618 10614 10611 10607 10603 10599 10595 10589 10583 10576 10568 10561 10555 10548 10541 10535 10527 10520 10512 10505 10495 10484 10470 10461 10453
10573 10581 10589 10596 10602 10606 10610 10613 10615 10618 10621 10623 10625 10626 10628 10627 10625 10622 10620 10618 10615 10611 10607 10603 10600 10596 10593 10589 10585 10578 10571 10565 10557 10550 10543 10537 10529 10523 10515 10506 10495 10489 10481 10472 10460 10448 10439
10561 10570 10577 10585 10591 10596 10600 10603 10606 10608 10611 10613 10615 10616 10617 10617 10615 10613 10611 10608 10604 10601 10597 10592 10588 10584 10581 10577 10574 10569 10560 10552 10545 10538 10530 10522 10513 10507 10501 10495 10483 10474 10466 10458 10446 10436 10424
10549 10558 10565 10573 10580 10585 10589 10593 10595 10598 10601 10603 10604 10606 10606 10607 10604 10603 10601 10597 10593 10589 10585 10581 10576 10573 10569 10565 10561 10555 10548 10539 10532 10524 10517 10510 10500 10493 10483 10480 10469 10457 10451 10443 10432 10423 10414
10537 10546 10554 10562 10568 10574 10578 10581 10584 10587 10590 10592 10593 10594 10595 10595 10593 10591 10589 10586 10582 10577 10573 10569 10566 10561 10557 10553 10547 10539 10533 10527 10519 10511 10504 10496 10489 10480 10468 10465 10458 10445 10436 10428 10418 10407 10401
10525 10535 10543 10550 10556 10562 10566 10571 10573 10576 10579 10581 10582 10584 10584 10583 10581 10580 10576 10573 10569 10565 10561 10557 10554 10550 10545 10540 10533 10526 10518 10510 10504 10496 10489 10480 10474 10467 10458 10448 10443 10431 10421 10415 10404 10393 10390
10514 10524 10532 10539 10544 10549 10553 10557 10560 10564 10567 10569 10572 10572 10572 10571 10569 10567 10564 10561 10556 10553 10549 10545 10540 10538 10534 10528 10520 10512 10504 10496 10488 10480 10472 10465 10457 10449 10442 10432 10427 10412 10410 10404 10394 10380 10378
10502 10512 10521 10526 10530 10536 10541 10545 10548 10551 10554 10557 10558 10559 10558 10556 10555 10553 10551 10547 10544 10540 10536 10531 10528 10525 10521 10515 10507 10500 10490 10482 10472 10464 10455 10448 10441 10433 10422 10417 10408 10390 10395 10393 10385 10369 10366
10490 10499 10506 10513 10519 10525 10529 10532 10536 10538 10541 10543 10544 10544 10544 10543 10541 10540 10537 10535 10532 10528 10522 10517 10514 10511 10508 10502 10495 10486 10477 10467 10460 10450 10439 10433 10425 10414 10406 10403 10393 10379 10377 10378 10371 10365 10353
10477 10485 10493 10500 10507 10513 10517 10520 10523 10525 10527 10529 10530 10531 10530 10530 10528 10526 10523 10520 10518 10515 10510 10506 10502 10497 10493 10487 10480 10472 10463 10454 10444 10435 10428 10422 10411 10399 10392 10387 10380 10360 10363 10365 10360 10355 10349
10463 10473 10480 10487 10493 10499 10503 10506 10509 10511 10514 10516 10516 10516 10516 10516 10514 10512 10509 10505 10503 10500 10497 10493 10488 10484 10479 10471 10464 10457 10448 10439 10430 10420 10417 10406 10398 10394 10380 10369 10362 10354 10351 10350 10348 10342 10337
10450 10459 10467 10473 10479 10484 10489 10492 10494 10497 10500 10501 10502 10502 10503 10501 10500 10498 10494 10490 10488 10487 10483 10479 10475 10470 10463 10456 10450 10442 10433 10426 10417 10404 10397 10393 10393 10383 10371 10355 10351 10348 10344 10341 10338 10333 10327